STARLINK-4423 (53209 NORAD) Tracking and Keplerian Element Data

This shows tracking and keplerian element data for the satellite.

Feedback or suggestion? Click here.




ElementValue
Catalog53209
NameSTARLINK-4423
Epoch Orbit1072
Epoch Day270.15514396
Epoch Year2022
RAAN329.9797
Inclination97.6532
Eccentricity0.0001672
Argument of Perigee126.2465
Mean Anonmoly233.8914
Mean Motion15.0126762
Decay Rate-8.49E-06
L11 53209U 22084W 22270.15514396 -.00000849 00000+0 -61478-4 0 9994
L22 53209 97.6532 329.9797 0001672 126.2465 233.8914 15.01267620 10721

Live tracking and technical data element details for STARLINK-4423 (NORAD 53209). STARLINK-4423 can be tracked NOW for your location showing map with azimuth and elevation plus other details from your city location.

Track the satellite on the map from your city or location and see movement details for azimuth, elevation, latitude, longitude, range, height, and movement on the map or in text.







IsCatalogInMostPopularTable: catalog: 53209, numindb: 5
Update: records affected: 1



GetName: 53209 STARLINK-4423

Hit Count: updated at: Fri, 30 Sep 2022 02:57:40 GMT